Date String (YYYY-MM-DD hh:mm:ss) UTC,Instrument flags,Ambient pressure (hPa),Sample flow (lpm),Bypass flow (lpm),Sample temperature (°C),Ambient temperature (°C),ASC tube jacket temperature (°C),LED temperature (°C),Box temperature (°C),Sample RH (%),Span deviation,Mass concentration (μg/m³),Mass concentration (μg/m³),Mass concentration (μg/m³)
DateTimeUTC,F1_M11,P_M11,Q1_M11,Q2_M11,T1_M11,T2_M11,T3_M11,T4_M11,T5_M11,U1_M11,ZSPAN_M11,X0_M11,X2_M11,X1_M11
2022-09-30 23:00:00,,0825.9,5.01,0.00,29.8,28.7,00.0,38.4,31.7,25.0,0000.0,0004.75,0001.97,0001.07
2022-09-30 23:01:00,,0825.9,5.00,0.00,29.8,28.7,00.0,38.5,31.7,25.2,0000.0,0004.78,0001.98,0001.09
2022-09-30 23:02:00,,0825.9,5.00,0.00,29.8,28.7,00.0,38.5,31.7,24.9,0000.0,0004.70,0001.96,0001.09
2022-09-30 23:03:00,,0825.9,5.00,0.00,29.8,28.7,00.0,38.5,31.7,24.6,0000.0,0004.50,0001.88,0001.10
2022-09-30 23:04:00,,0825.9,4.99,0.00,29.9,28.8,00.0,38.5,31.8,24.9,0000.0,0004.29,0001.82,0001.11
2022-09-30 23:05:00,,0825.8,5.02,0.00,29.9,28.5,00.0,38.5,31.8,24.8,0000.0,0004.12,0001.78,0001.11
2022-09-30 23:06:00,,0825.9,5.01,0.00,29.9,27.1,00.0,38.5,31.7,24.4,0000.0,0004.01,0001.75,0001.11
2022-09-30 23:07:00,,0825.7,5.00,0.00,29.8,26.3,00.0,38.5,31.6,23.8,0000.0,0003.93,0001.72,0001.11
2022-09-30 23:08:00,,0825.6,5.00,0.00,29.7,26.4,00.0,38.4,31.4,23.6,0000.0,0003.91,0001.71,0001.10
2022-09-30 23:09:00,,0825.5,5.00,0.00,29.6,26.7,00.0,38.4,31.3,23.6,0000.0,0003.69,0001.64,0001.09
2022-09-30 23:10:00,,0825.5,5.00,0.00,29.6,26.9,00.0,38.4,31.3,23.2,0000.0,0003.40,0001.57,0001.06
2022-09-30 23:11:00,,0825.4,4.99,0.00,29.6,27.1,00.0,38.3,31.3,23.6,0000.0,0002.57,0001.57,0001.05
2022-09-30 23:12:00,,0825.4,5.00,0.00,29.5,27.2,00.0,38.3,31.3,24.0,0000.0,0002.40,0001.50,0001.02
2022-09-30 23:13:00,,0825.3,5.00,0.00,29.5,27.3,00.0,38.3,31.3,24.1,0000.0,0002.20,0001.42,0000.99
2022-09-30 23:14:00,,0825.3,4.98,0.00,29.5,27.4,00.0,38.3,31.2,24.1,0000.0,0002.22,0001.42,0000.98
2022-09-30 23:15:00,,0825.3,5.00,0.00,29.4,27.5,00.0,38.3,31.2,24.4,0000.0,0002.27,0001.42,0000.98
2022-09-30 23:16:00,,0825.2,5.01,0.00,29.4,27.5,00.0,38.3,31.2,24.6,0000.0,0002.21,0001.40,0000.97
2022-09-30 23:17:00,,0825.3,5.00,0.00,29.4,27.5,00.0,38.2,31.2,24.9,0000.0,0002.14,0001.37,0000.96
2022-09-30 23:18:00,,0825.2,4.99,0.00,29.4,27.6,00.0,38.2,31.2,25.0,0000.0,0003.53,0001.34,0000.96
2022-09-30 23:19:00,,0825.1,5.00,0.00,29.4,27.6,00.0,38.2,31.2,25.0,0000.0,0004.84,0001.35,0000.97
2022-09-30 23:20:00,,0825.1,5.01,0.00,29.4,27.6,00.0,38.2,31.2,25.3,0000.0,0005.03,0001.42,0000.98
2022-09-30 23:21:00,,0824.9,5.01,0.00,29.4,27.6,00.0,38.2,31.2,25.6,0000.0,0005.20,0001.49,0001.00
2022-09-30 23:22:00,,0825.0,5.00,0.00,29.4,27.7,00.0,38.2,31.2,25.5,0000.0,0005.95,0001.56,0001.03
2022-09-30 23:23:00,,0825.1,5.00,0.00,29.3,27.6,00.0,38.2,31.2,25.6,0000.0,0007.26,0001.65,0001.07
2022-09-30 23:24:00,,0825.1,5.00,0.00,29.3,27.6,00.0,38.2,31.2,25.6,0000.0,0007.36,0001.70,0001.09
2022-09-30 23:25:00,,0825.1,5.00,0.00,29.3,27.6,00.0,38.2,31.2,25.5,0000.0,0007.37,0001.71,0001.11
2022-09-30 23:26:00,,0825.2,5.00,0.00,29.3,27.6,00.0,38.2,31.2,25.2,0000.0,0007.40,0001.75,0001.12
2022-09-30 23:27:00,,0825.1,4.98,0.00,29.3,27.7,00.0,38.1,31.2,25.3,0000.0,0007.42,0001.78,0001.13
2022-09-30 23:28:00,,0825.0,5.01,0.00,29.3,27.7,00.0,38.2,31.2,25.3,0000.0,0008.30,0001.80,0001.15
2022-09-30 23:29:00,,0824.9,5.00,0.00,29.3,27.8,00.0,38.1,31.2,25.4,0000.0,0007.96,0001.84,0001.17
2022-09-30 23:30:00,,0824.8,4.99,0.00,29.4,27.8,00.0,38.2,31.2,25.4,0000.0,0007.25,0001.83,0001.17
2022-09-30 23:31:00,,0824.7,5.00,0.00,29.4,27.8,00.0,38.2,31.2,25.6,0000.0,0007.14,0001.80,0001.18
2022-09-30 23:32:00,,0824.7,5.01,0.00,29.4,27.9,00.0,38.2,31.2,25.8,0000.0,0007.24,0001.81,0001.18
2022-09-30 23:33:00,,0824.7,4.98,0.00,29.4,27.9,00.0,38.2,31.2,25.5,0000.0,0006.85,0001.80,0001.19
2022-09-30 23:34:00,,0824.6,5.00,0.00,29.4,27.9,00.0,38.2,31.2,25.5,0000.0,0005.69,0001.86,0001.19
2022-09-30 23:35:00,,0824.5,5.01,0.00,29.4,28.0,00.0,38.2,31.3,25.7,0000.0,0005.70,0001.90,0001.21
2022-09-30 23:36:00,,0824.4,5.00,0.00,29.4,28.0,00.0,38.2,31.3,25.6,0000.0,0005.76,0001.93,0001.23
2022-09-30 23:37:00,,0824.3,4.99,0.00,29.4,28.1,00.0,38.2,31.3,25.3,0000.0,0005.66,0001.89,0001.23
2022-09-30 23:38:00,,0824.3,5.00,0.00,29.4,28.1,00.0,38.2,31.3,25.2,0000.0,0005.76,0001.90,0001.23
2022-09-30 23:39:00,,0824.5,5.00,0.00,29.5,28.2,00.0,38.2,31.3,25.2,0000.0,0005.28,0001.91,0001.23
2022-09-30 23:40:00,,0824.6,5.00,0.00,29.5,28.2,00.0,38.2,31.4,24.9,0000.0,0003.57,0001.93,0001.24
2022-09-30 23:41:00,,0824.8,5.00,0.00,29.5,28.3,00.0,38.2,31.4,25.3,0000.0,0003.38,0001.91,0001.24
2022-09-30 23:42:00,,0824.9,4.98,0.00,29.5,28.3,00.0,38.2,31.4,25.8,0000.0,0003.81,0001.94,0001.25
2022-09-30 23:43:00,,0825.3,5.01,0.00,29.6,28.3,00.0,38.3,31.5,26.4,0000.0,0005.00,0001.93,0001.26
2022-09-30 23:44:00,,0825.3,4.99,0.00,29.6,28.4,00.0,38.3,31.5,26.6,0000.0,0004.95,0001.90,0001.27
2022-09-30 23:45:00,,0825.4,5.01,0.00,29.6,28.4,00.0,38.3,31.5,26.7,0000.0,0004.72,0001.80,0001.28
2022-09-30 23:46:00,,0825.5,4.99,0.00,29.6,28.4,00.0,38.3,31.5,26.6,0000.0,0004.55,0001.75,0001.27
2022-09-30 23:47:00,,0825.5,5.01,0.00,29.6,28.5,00.0,38.3,31.6,26.6,0000.0,0005.73,0001.75,0001.28
2022-09-30 23:48:00,,0825.4,5.01,0.00,29.7,28.5,00.0,38.3,31.6,26.5,0000.0,0005.99,0001.80,0001.29
2022-09-30 23:49:00,,0825.5,4.99,0.00,29.7,28.5,00.0,38.3,31.6,26.1,0000.0,0006.02,0001.84,0001.29
2022-09-30 23:50:00,,0825.4,5.01,0.00,29.7,28.6,00.0,38.4,31.6,25.8,0000.0,0005.96,0001.82,0001.28
2022-09-30 23:51:00,,0825.4,5.01,0.00,29.7,28.6,00.0,38.4,31.7,25.2,0000.0,0006.05,0001.85,0001.27
2022-09-30 23:52:00,,0825.4,4.99,0.00,29.8,28.6,00.0,38.4,31.7,24.7,0000.0,0006.15,0001.87,0001.27
2022-09-30 23:53:00,,0825.4,5.01,0.00,29.8,28.6,00.0,38.4,31.7,24.7,0000.0,0005.67,0001.86,0001.27
2022-09-30 23:54:00,,0825.4,4.99,0.00,29.8,28.7,00.0,38.4,31.7,24.5,0000.0,0004.53,0001.84,0001.26
2022-09-30 23:55:00,,0825.4,5.01,0.00,29.8,28.7,00.0,38.5,31.7,24.2,0000.0,0004.89,0001.87,0001.25
2022-09-30 23:56:00,,0825.4,5.00,0.00,29.8,28.7,00.0,38.5,31.8,24.3,0000.0,0005.25,0001.87,0001.23
2022-09-30 23:57:00,,0825.4,4.99,0.00,29.9,28.7,00.0,38.5,31.7,24.4,0000.0,0005.35,0001.87,0001.22
2022-09-30 23:58:00,,0825.4,5.00,0.00,29.9,28.7,00.0,38.5,31.7,24.6,0000.0,0004.12,0001.86,0001.20
2022-09-30 23:59:00,,0825.4,5.00,0.00,29.9,28.8,00.0,38.5,31.8,24.8,0000.0,0004.06,0001.83,0001.20
